Temperature
21 21 21 20 20 20 20 20 20 20 20 19 19 19 19 19 19 19 19 19 19 19 19 19 19 19 19 19 19 19 19 19 19 19 20 20 20 19 19 19 19 19 19
21 21 21 20 20 20 20 20 20 20 19 19 19 19 19 19 19 19 19 19 19 19 19 19 19 19 19 19 19 19 19 19 19 19 19 19 19 19 19 19 19 19 19
21 21 21 20 20 20 19 20 20 19 19 19 19 19 19 19 19 19 19 19 19 18 18 19 19 19 19 19 19 19 19 19 19 19 19 19 19 19 19 19 19 19 19
21 21 21 21 20 20 20 20 20 19 19 19 19 19 19 19 19 19 19 19 19 18 18 18 19 19 19 19 19 19 19 19 19 19 18 18 18 19 19 19 19 19 19
20 21 21 21 21 20 20 20 19 19 19 19 19 19 19 19 19 19 19 19 18 18 18 19 18 19 19 19 19 19 19 19 19 18 18 18 18 18 19 19 19 19 19
20 20 21 21 21 20 20 20 19 19 19 19 19 19 19 19 19 19 19 19 19 18 18 18 18 18 19 19 19 19 19 19 18 18 18 18 18 18 19 19 19 19 19
20 20 21 21 20 20 20 20 19 19 19 19 19 19 19 19 19 19 19 19 19 19 18 18 18 18 18 19 19 19 19 18 18 18 18 18 18 18 18 18 18 19 19
21 20 21 20 20 20 20 19 19 19 19 19 19 19 19 19 19 19 18 19 19 19 19 18 18 18 18 19 19 19 19 18 18 18 18 18 18 19 19 18 18 18 18
21 20 20 20 20 20 20 20 19 19 19 19 19 19 18 18 19 18 19 19 19 19 19 19 18 19 18 19 19 19 19 18 18 18 18 18 19 19 19 18 18 18 18
22 21 20 20 20 20 20 20 19 19 19 19 19 19 19 18 18 18 18 18 19 19 19 19 18 18 19 19 19 19 19 18 18 18 18 18 19 19 19 19 18 18 18
22 21 20 20 19 19 19 19 19 19 19 19 19 19 19 19 18 18 18 18 19 19 19 19 19 19 19 19 19 19 19 19 18 18 18 18 19 19 19 19 19 18 18
23 22 21 21 20 19 19 19 19 19 19 19 19 19 19 18 17 17 18 18 19 19 19 19 19 19 19 19 19 19 19 19 19 18 18 18 18 18 19 19 19 19 19
23 23 22 21 20 20 19 19 19 19 19 19 18 19 19 18 17 18 18 19 19 18 18 19 19 19 19 18 19 19 19 19 19 18 18 18 18 18 18 19 19 19 19
24 23 22 21 21 20 20 19 19 19 18 18 18 18 19 18 18 18 18 18 18 18 18 18 19 19 19 19 19 19 19 19 19 18 18 17 18 18 18 18 18 19 19
24 24 23 22 21 21 20 20 19 19 19 19 19 19 18 18 19 19 19 18 18 18 18 19 19 20 20 20 19 19 19 19 18 18 17 17 18 18 18 18 18 18 18
25 24 23 23 22 21 21 20 20 19 19 19 19 19 19 19 19 19 19 19 19 19 19 19 19 20 19 19 19 19 19 19 18 17 17 17 17 18 18 18 17 17 18
25 25 24 23 23 22 22 21 20 19 19 19 19 19 19 19 19 19 19 19 19 19 19 19 19 19 19 19 19 18 19 18 18 17 17 17 17 17 17 18 17 17 17
25 25 24 23 23 23 22 21 21 20 20 19 19 19 19 19 19 19 19 19 19 19 19 19 19 19 19 18 18 18 18 18 18 18 18 17 17 17 17 17 17 17 17
24 24 24 23 23 23 22 22 21 21 20 20 19 19 19 20 19 19 19 19 19 19 19 19 18 18 18 18 18 18 18 18 18 18 18 18 18 17 17 17 17 17 17
22 23 23 23 23 22 22 22 21 21 20 20 20 19 19 20 19 19 19 19 19 19 18 18 18 18 18 18 18 18 18 18 18 18 18 18 18 17 17 17 17 17 17
21 22 22 22 22 22 22 22 21 21 20 20 20 19 19 19 19 19 18 18 18 18 18 18 18 17 18 17 17 18 18 18 18 18 18 18 18 18 18 17 17 17 17
19 20 21 21 22 22 22 21 21 21 20 20 20 19 19 19 19 18 18 18 18 18 18 17 17 17 17 17 17 17 17 17 18 18 18 18 18 18 18 17 17 17 17
18 18 19 19 20 21 22 21 21 20 20 20 19 19 19 18 18 18 18 18 18 18 17 17 17 17 17 17 17 17 16 17 17 17 17 17 18 18 18 17 17 17 17
17 17 18 18 19 20 21 21 21 20 20 19 19 19 18 18 18 18 18 17 17 17 17 17 17 17 17 17 17 17 16 17 17 17 17 17 17 17 17 17 17 17 17
16 16 17 17 18 19 19 20 20 20 19 19 19 18 18 17 17 17 17 17 17 17 17 17 17 17 17 16 16 16 16 16 16 16 16 17 17 17 17 17 17 17 17
15 16 16 17 17 17 18 18 18 18 18 18 18 17 17 17 17 17 17 17 17 17 17 17 17 17 17 16 16 16 16 16 16 16 16 16 16 17 17 16 17 17 17
Wind_Speed
13 16 17 16 15 13 13 13 13 13 12 12 11 11 12 12 11 11 10 10 10 9 9 8 7 7 7 7 8 8 7 7 8 7 7 7 8 10 12 12 9 8 8
17 18 18 17 15 14 13 12 12 11 11 11 11 11 11 11 11 11 10 10 10 10 9 9 9 8 9 9 10 9 6 5 4 3 4 7 8 9 11 12 12 9 9
19 19 18 17 16 14 13 12 11 10 10 11 11 10 10 10 10 10 10 10 10 10 10 9 9 9 9 10 10 8 6 3 3 2 2 5 8 9 10 10 11 11 10
19 18 17 18 16 14 13 12 11 10 11 10 10 10 10 9 9 9 9 10 10 10 10 9 9 9 9 9 9 8 6 4 2 2 2 5 8 8 9 9 9 10 10
18 18 19 19 16 14 13 11 10 10 10 10 10 10 9 9 9 10 10 10 10 10 10 9 9 8 8 9 9 8 6 3 2 5 4 10 10 8 8 7 7 8 9
17 18 20 19 17 15 13 11 10 10 10 10 10 9 9 9 8 9 10 11 11 11 10 10 9 9 9 8 8 7 5 2 3 4 11 12 10 8 7 5 5 6 7
17 17 19 17 16 14 12 11 10 10 10 10 10 9 8 8 7 8 9 10 11 11 10 10 9 8 8 8 7 6 4 1 3 2 10 12 10 8 7 5 4 4 5
16 17 18 17 15 14 13 12 11 11 11 11 10 9 8 7 7 8 9 10 11 10 9 8 8 7 7 8 8 6 4 1 2 4 13 13 10 8 7 7 5 4 3
15 16 15 16 14 14 13 13 13 13 12 12 11 10 9 8 7 8 10 10 10 10 8 7 5 5 6 6 6 6 5 3 2 4 13 11 10 9 7 8 7 5 3
13 15 15 16 16 14 13 13 13 14 14 14 12 11 10 9 8 9 10 10 9 8 7 6 4 3 4 4 5 5 4 4 5 8 13 11 10 8 7 7 7 6 4
11 12 13 14 14 15 15 15 14 13 14 14 13 12 11 11 11 11 11 11 8 7 7 6 5 4 4 5 6 6 6 9 8 9 11 11 9 6 5 5 5 5 4
9 11 11 11 11 10 10 14 12 12 12 13 13 13 12 12 11 11 14 12 10 8 7 7 7 8 8 8 9 9 9 12 7 11 11 10 7 4 4 4 4 3 3
10 9 11 11 10 8 6 9 7 9 12 13 12 14 13 12 10 12 11 10 10 10 10 10 10 11 12 10 10 10 4 6 7 12 10 9 5 2 2 3 4 3 3
10 11 10 11 10 10 8 6 5 5 6 7 11 14 12 6 7 9 9 11 12 11 10 10 10 13 11 11 6 4 7 2 10 11 10 8 4 1 2 3 4 4 4
9 10 10 10 11 10 9 6 6 5 6 9 10 12 11 5 5 4 5 9 10 9 6 4 5 3 2 3 3 5 4 7 9 10 10 7 4 2 1 2 3 5 5
10 10 10 10 10 11 11 9 8 6 7 9 9 11 14 9 4 4 4 4 5 6 8 6 3 4 1 3 4 3 1 4 7 9 11 9 6 4 2 2 2 4 5
8 9 11 11 9 10 13 12 8 5 8 6 8 13 13 11 7 4 4 5 4 6 7 4 1 3 3 4 1 2 3 5 4 4 9 11 9 7 5 4 3 3 3
4 2 9 11 10 9 8 9 8 7 6 5 8 10 12 12 10 5 3 3 3 5 3 3 3 2 2 2 2 2 1 3 2 1 2 9 11 10 8 6 5 4 4
9 7 3 8 10 8 8 7 6 7 7 5 7 7 8 10 10 6 4 1 3 1 2 4 2 1 0 1 1 2 2 2 2 2 4 6 11 12 12 9 8 6 6
7 8 9 5 8 9 7 6 6 5 7 6 5 6 7 6 7 7 4 3 1 3 2 1 3 2 2 1 2 2 3 2 2 3 2 2 3 10 11 12 11 9 8
9 7 7 9 7 6 6 7 7 7 6 6 6 7 8 5 5 6 5 4 1 2 3 2 2 2 1 2 2 3 3 3 5 4 4 3 2 7 9 11 11 11 10
13 12 11 9 9 7 6 8 7 8 7 6 5 5 7 6 5 6 6 4 3 2 2 3 2 3 2 2 2 2 2 4 3 3 3 4 3 3 5 9 12 13 13
13 14 14 14 13 8 6 5 5 6 6 5 6 5 4 5 5 4 5 6 5 6 5 6 5 6 5 4 4 3 3 4 2 4 4 4 5 3 3 3 8 14 15
12 13 13 14 14 10 4 4 7 6 6 6 5 5 5 4 4 4 2 2 3 4 6 7 7 5 5 4 4 3 4 4 3 2 3 3 5 5 4 3 2 5 14
12 12 11 12 12 12 8 4 6 5 4 3 5 6 4 3 4 4 3 2 1 2 5 6 6 6 5 5 4 3 3 3 2 3 2 3 3 2 3 3 2 3 8
12 11 11 11 11 11 10 5 1 4 5 5 6 6 4 2 2 3 3 2 1 3 5 4 3 6 4 4 4 4 3 2 2 1 3 3 3 4 2 3 2 3 5
Wind_Direction
132 136 145 141 136 131 127 124 121 119 119 116 114 111 106 101 98 99 98 94 90 89 86 85 85 87 94 101 94 87 82 83 83 80 79 74 57 44 39 37 50 70 70
133 134 144 143 140 137 133 130 126 125 125 122 116 110 106 101 98 96 98 96 92 89 85 82 78 81 90 101 103 100 97 98 103 104 108 104 81 61 52 50 55 64 69
131 136 144 145 144 142 140 136 133 133 130 125 120 119 114 110 108 101 96 94 93 91 86 82 82 85 95 107 114 117 119 136 187 198 169 122 93 68 62 59 60 66 72
133 142 147 148 148 148 147 145 142 137 131 130 129 125 122 119 118 110 99 94 92 92 91 87 86 92 102 115 127 135 137 152 224 271 283 90 88 71 68 68 69 70 71
138 146 144 152 153 154 155 154 152 147 143 142 136 130 128 124 117 111 103 97 93 92 92 89 87 96 110 123 136 145 148 164 275 306 22 81 86 77 72 76 79 82 80
140 141 147 156 159 161 163 162 161 160 157 151 143 138 132 125 118 116 110 102 95 90 87 84 81 89 106 122 137 145 155 180 303 348 56 82 84 73 70 73 81 86 88
139 138 150 157 162 166 169 171 172 170 167 161 155 152 149 139 133 128 123 114 104 96 87 80 76 79 94 112 126 137 145 178 278 39 81 81 75 68 63 59 71 89 94
140 141 149 156 163 171 175 179 182 178 174 172 168 164 158 150 148 141 134 128 118 110 99 87 79 80 93 113 125 138 145 253 194 132 101 84 73 68 64 57 63 90 98
143 142 149 160 166 174 179 183 186 182 179 179 175 168 159 154 155 149 143 138 131 124 116 105 93 92 102 120 136 151 171 213 246 143 107 91 79 69 63 61 63 76 95
151 151 158 164 169 174 181 187 190 187 184 181 178 170 162 160 162 158 156 149 146 141 134 129 126 124 132 148 169 186 204 236 244 118 111 105 94 83 72 66 64 68 87
155 155 157 163 167 174 177 179 183 189 188 181 177 174 171 179 178 180 169 155 161 159 158 165 177 189 193 200 208 222 241 244 213 122 112 115 112 110 107 91 75 69 81
163 159 157 158 158 168 170 158 174 181 179 186 182 178 195 206 198 175 152 162 171 177 186 202 211 218 220 217 222 222 242 247 184 112 108 113 114 126 147 141 123 100 94
175 165 163 163 163 157 144 155 174 175 169 196 188 182 205 202 190 148 160 161 181 193 204 210 220 228 218 212 203 201 224 324 79 103 109 109 112 136 189 188 170 151 142
175 168 170 168 168 165 158 158 164 166 168 182 186 197 207 197 195 169 173 175 187 202 209 195 217 219 215 179 204 173 141 45 76 103 108 102 105 134 222 216 203 183 172
166 169 176 174 175 171 154 159 173 177 176 180 188 206 214 196 203 186 179 171 190 193 174 245 249 180 1 83 88 49 79 92 84 96 116 108 111 122 181 211 203 188 183
164 179 169 174 178 163 157 178 179 181 176 179 184 204 215 199 190 172 188 159 191 178 172 225 245 116 102 58 47 49 5 92 112 123 136 132 124 115 116 134 170 184 191
173 180 168 175 187 184 175 175 171 177 177 183 186 206 210 194 187 171 197 161 187 188 192 221 343 96 109 104 133 305 64 44 35 121 146 152 140 123 116 116 130 161 182
352 230 177 178 185 192 175 168 171 181 178 181 184 205 209 196 188 176 155 148 189 185 171 117 39 42 110 154 192 179 128 122 250 357 227 161 151 142 133 127 125 130 144
347 333 285 185 182 193 182 172 173 180 173 179 182 194 213 197 188 153 135 134 200 151 130 140 157 200 144 153 112 107 288 190 185 222 260 161 151 151 145 136 128 125 131
326 314 307 277 191 192 185 175 176 192 177 175 172 177 201 204 180 138 131 168 232 137 121 119 143 106 40 37 290 237 210 203 230 245 309 2 185 156 150 150 141 130 128
335 318 291 285 256 206 185 183 179 188 188 175 176 174 178 184 146 122 130 141 96 123 148 183 124 96 23 343 319 310 295 238 227 215 191 247 259 141 150 164 156 142 133
348 342 324 301 279 246 211 197 190 180 185 177 167 158 160 165 154 140 141 151 172 168 186 212 158 145 206 244 235 254 303 316 290 252 194 186 266 184 199 187 161 153 153
350 347 339 334 319 277 231 205 196 181 173 170 168 164 154 152 154 154 163 177 196 187 195 210 203 184 200 233 241 205 189 230 275 298 239 198 217 234 221 209 179 167 160
353 346 343 341 335 321 268 215 201 191 190 185 170 159 156 152 146 157 163 168 198 192 196 208 209 190 189 222 253 247 219 203 172 280 312 265 221 212 211 230 224 177 165
0 356 351 349 349 346 334 262 217 199 184 164 146 151 163 155 132 127 112 100 278 269 240 221 192 170 172 199 220 234 255 283 247 194 258 300 312 245 196 227 195 232 163
6 4 2 2 1 357 355 1 149 164 142 138 149 153 145 128 102 118 118 128 245 280 277 260 170 157 173 203 210 206 202 210 238 183 221 253 272 290 261 227 221 216 180
Height
1515 1516 1518 1520 1523 1525 1527 1528 1530 1532 1533 1534 1535 1536 1537 1538 1540 1541 1542 1543 1545 1546 1547 1548 1549 1550 1551 1553 1554 1555 1556 1556 1557 1558 1558 1558 1558 1558 1557 1556 1556 1556 1556
1514 1517 1519 1521 1524 1526 1528 1530 1531 1533 1534 1535 1536 1537 1538 1539 1541 1542 1543 1544 1546 1547 1548 1549 1550 1551 1552 1553 1554 1555 1556 1557 1558 1559 1559 1560 1560 1560 1559 1558 1558 1557 1557
1514 1517 1520 1522 1525 1527 1529 1531 1533 1534 1535 1537 1537 1538 1539 1541 1542 1543 1544 1545 1546 1547 1548 1549 1550 1551 1552 1553 1554 1555 1556 1558 1559 1559 1560 1560 1560 1561 1561 1560 1559 1559 1559
1515 1518 1520 1523 1525 1528 1530 1532 1534 1535 1536 1537 1538 1540 1541 1542 1543 1544 1545 1546 1547 1547 1548 1549 1550 1551 1552 1553 1554 1556 1557 1559 1560 1561 1561 1561 1561 1562 1562 1561 1561 1560 1560
1516 1519 1521 1524 1526 1528 1531 1533 1535 1536 1537 1538 1539 1541 1542 1543 1544 1545 1546 1547 1547 1548 1548 1549 1550 1551 1552 1553 1555 1556 1558 1559 1561 1561 1562 1561 1561 1562 1562 1562 1562 1561 1561
1518 1520 1522 1524 1527 1529 1531 1534 1535 1537 1538 1539 1540 1542 1543 1544 1546 1546 1547 1548 1548 1548 1549 1550 1551 1552 1553 1553 1555 1556 1558 1559 1561 1562 1562 1561 1562 1562 1562 1562 1562 1562 1561
1520 1521 1523 1526 1528 1530 1532 1534 1536 1538 1539 1540 1541 1543 1544 1545 1546 1547 1548 1548 1549 1549 1550 1550 1551 1552 1553 1554 1555 1556 1557 1559 1560 1562 1562 1562 1563 1563 1562 1563 1562 1562 1562
1521 1522 1524 1526 1528 1530 1532 1534 1536 1538 1540 1541 1542 1543 1544 1545 1546 1547 1548 1548 1549 1550 1551 1551 1552 1552 1553 1554 1555 1556 1557 1559 1560 1562 1562 1562 1563 1563 1563 1563 1563 1562 1562
1523 1523 1524 1527 1529 1530 1532 1534 1536 1537 1539 1541 1542 1544 1545 1546 1547 1548 1548 1549 1549 1550 1551 1552 1553 1553 1554 1555 1556 1557 1558 1559 1561 1562 1561 1562 1562 1563 1563 1563 1563 1563 1562
1524 1525 1525 1527 1529 1530 1532 1533 1535 1537 1539 1540 1542 1544 1545 1546 1547 1548 1549 1549 1550 1550 1551 1552 1553 1554 1555 1556 1557 1558 1559 1560 1561 1561 1561 1562 1562 1563 1563 1563 1563 1563 1563
1525 1526 1527 1528 1529 1531 1532 1533 1535 1536 1538 1540 1542 1543 1545 1547 1548 1549 1549 1550 1550 1551 1552 1553 1554 1555 1556 1557 1558 1559 1560 1561 1562 1561 1561 1562 1562 1562 1562 1562 1562 1562 1563
1525 1526 1528 1529 1530 1532 1533 1533 1535 1536 1538 1539 1541 1543 1545 1547 1548 1549 1550 1551 1551 1551 1552 1553 1554 1555 1556 1557 1559 1560 1561 1562 1563 1561 1561 1561 1561 1561 1561 1561 1561 1561 1562
1524 1526 1527 1529 1530 1531 1532 1533 1535 1536 1537 1539 1541 1543 1545 1547 1548 1549 1551 1551 1551 1552 1552 1554 1555 1556 1556 1558 1560 1561 1562 1563 1563 1561 1561 1560 1560 1560 1560 1560 1560 1560 1561
1523 1524 1526 1528 1529 1530 1531 1532 1534 1535 1536 1538 1540 1542 1544 1546 1548 1549 1550 1550 1551 1552 1552 1554 1555 1556 1558 1559 1561 1562 1562 1563 1562 1561 1561 1560 1559 1559 1559 1559 1559 1560 1560
1521 1523 1525 1526 1528 1529 1530 1531 1532 1534 1535 1536 1538 1540 1543 1546 1548 1549 1550 1550 1551 1553 1554 1555 1556 1558 1559 1560 1561 1562 1562 1562 1562 1561 1560 1559 1558 1558 1558 1558 1558 1559 1559
1518 1521 1523 1525 1526 1527 1527 1529 1531 1532 1533 1534 1536 1538 1541 1544 1546 1548 1550 1550 1552 1554 1554 1555 1556 1557 1558 1559 1560 1561 1562 1562 1561 1560 1559 1559 1558 1557 1557 1557 1558 1558 1559
1516 1518 1519 1522 1524 1526 1526 1527 1529 1531 1532 1533 1534 1537 1539 1542 1545 1547 1548 1549 1551 1553 1554 1555 1556 1557 1558 1558 1559 1561 1561 1561 1561 1561 1559 1558 1558 1557 1557 1557 1557 1558 1558
1515 1516 1517 1518 1521 1524 1525 1525 1526 1528 1530 1532 1533 1535 1538 1541 1543 1545 1547 1548 1550 1551 1553 1554 1554 1556 1557 1558 1559 1559 1560 1560 1560 1560 1560 1559 1558 1558 1557 1557 1557 1557 1558
1512 1513 1515 1516 1517 1520 1522 1523 1525 1526 1528 1529 1531 1533 1536 1538 1540 1542 1543 1546 1548 1550 1551 1552 1553 1555 1556 1557 1558 1558 1559 1559 1559 1559 1559 1560 1559 1558 1557 1557 1557 1557 1558
1510 1511 1511 1513 1514 1516 1518 1520 1522 1524 1525 1527 1529 1530 1533 1536 1538 1539 1540 1543 1546 1547 1549 1550 1552 1553 1554 1555 1557 1558 1558 1558 1558 1558 1558 1559 1559 1558 1557 1557 1557 1557 1557
1509 1509 1509 1510 1512 1512 1513 1515 1517 1519 1521 1523 1525 1527 1529 1532 1534 1535 1537 1540 1543 1544 1546 1548 1550 1551 1552 1554 1555 1555 1556 1557 1557 1557 1557 1557 1559 1558 1558 1557 1556 1556 1556
1507 1506 1506 1506 1507 1508 1509 1509 1511 1514 1517 1519 1521 1523 1525 1527 1530 1532 1534 1536 1539 1541 1543 1545 1547 1548 1549 1551 1552 1553 1554 1555 1554 1555 1555 1555 1556 1557 1557 1556 1556 1555 1555
1506 1504 1502 1501 1501 1502 1504 1505 1506 1508 1511 1513 1516 1518 1520 1522 1525 1528 1530 1532 1535 1537 1539 1541 1543 1544 1546 1548 1549 1551 1551 1551 1552 1552 1553 1553 1554 1555 1555 1556 1556 1554 1554
1506 1503 1500 1498 1497 1497 1498 1500 1501 1502 1504 1505 1509 1513 1516 1518 1520 1523 1526 1528 1531 1533 1535 1538 1539 1541 1543 1544 1546 1547 1549 1549 1550 1550 1551 1551 1552 1552 1553 1554 1554 1554 1553
1505 1502 1499 1496 1494 1493 1494 1495 1497 1498 1500 1502 1504 1507 1510 1514 1515 1518 1521 1524 1526 1529 1532 1534 1536 1538 1540 1541 1543 1544 1545 1546 1547 1548 1548 1549 1550 1550 1550 1551 1552 1552 1552
1504 1500 1498 1495 1493 1492 1491 1492 1493 1495 1497 1499 1501 1502 1504 1507 1510 1513 1516 1519 1522 1525 1528 1530 1533 1535 1537 1538 1540 1541 1543 1543 1544 1545 1545 1546 1546 1547 1547 1547 1548 1549 1550